Погода в Акбашевой

Россия / Челябинская область     55°17′34″N   60°50′42″E
темп.,
°C
ветер,
м/с
пор.,
м/с
влажн.,
%
обл.,
%
осадки,
мм/ч
давл.,
гПа
погр.,
м
25 февраля, чт
чт2523:00−22с81494100 0.8 1021820
02:00−23с81491100 0.1 1024678
05:00−26ссз6138898 0.1 1026394
08:00−28ссз410897 0.0 1028150
11:00−23ссз58864 0.0 1029312
14:00−18сз47830 0.0 1029500
17:00−18сз24870 0.0 102886
20:00−24ссз22910 0.0 102920
26 февраля, пт
пт2623:00−25юз12910 0.0 103020
02:00−26ююз12910 0.0 102919
05:00−27юз11880 0.0 102919
08:00−27ю22890 0.0 102919
11:00−23ююв23888 0.0 1028172
14:00−19ююв348851 0.0 1026314
17:00−19ююв359458 0.0 1026198
20:00−26ююв469932 0.0 102681
27 февраля, сб
сб2723:00−27ю479516 0.0 102593
02:00−26ю499746 0.0 1023148
05:00−26ю599730 0.0 1022170
08:00−27ююв5109948 0.0 1020225
11:00−23ююв6109674 0.1 1017378
14:00−19ююв71196100 0.2 1015533
17:00−16ююв61195100 1.3 1013694
20:00−15юв4896100 0.9 1011348
28 февраля, вс
вс2823:00−14вюв2397100 1.3 100854
02:00−12ююз1297100 0.3 100657
05:00−11з1197100 0.9 100623
08:00−12сз1296100 0.2 100523
11:00−9с1293100 0.3 1005175
14:00−6св2392100 0.2 1005339
17:00−6ссв3495100 0.6 1006312
20:00−8ссв479690 0.2 1007202
1 марта, пн
пн123:00−14с469694 0.4 1009178
02:00−14с4696100 0.1 1010225
05:00−16ссв4696100 0.5 1012224
08:00−18с359789 0.2 1013160
11:00−16ссв239388 0.3 1014233
14:00−14св2190100 0.1 1014273
17:00−13вюв1192100 0.1 1014191
20:00−14ююв129699 0.1 101420